Weather History for Adelaide, SA

Change the Weather History Date:

Thursday, October 4, 2012

  Actual Average Record
Temperature  
Mean Temperature 70 °F -  
Max Temperature 80 °F 71 °F 91 °F (2006)
Min Temperature 57 °F 51 °F 41 °F (2013)
Cooling Degree Days 4    
Growing Degree Days 20 (Base 50)    
Moisture  
Dew Point 38 °F    
Average Humidity 37    
Maximum Humidity 88    
Minimum Humidity 7    
Precipitation  
Precipitation 0.00 in 0.05 in - ()
Sea Level Pressure  
Sea Level Pressure 29.96 in    
Wind  
Wind Speed 11 mph ()    
Max Wind Speed 17 mph    
Max Gust Speed -    
Visibility 14.7 miles    
Events      
Averages and records for this station are not official NWS values.
T = Trace of Precipitation, MM = Missing Value Source: Averaged Metar Reports

Daily Weather History Graph

Daily Weather History Graph

Search for Another Location

Airport:

Trip Planner

Search our weather history database for the weather conditions in past years. The results will help you decide how hot, cold, wet, or windy it might be!

Date:

Astronomy

Oct. 04, 2012 Rise Set
Actual Time 5:48 AM CST 6:21 PM CST
Civil Twilight 5:22 AM CST 6:46 PM CST
Nautical Twilight 4:53 AM CST 7:16 PM CST
Astronomical Twilight 4:22 AM CST 7:47 PM CST
Moon 10:13 PM CST (10/4) 7:51 AM CST (10/4)
Length of Visible Light 13h 23m
Length of Day
12h 33m
Waning Gibbous, 86% of the Moon is Illuminated
Oct 4
Waning Gibbous
Oct 8
Last Quarter
Oct 15
New
Oct 22
First Quarter
Oct 30
Full

Hourly Weather History & Observations

Time (CST) Temp. Dew Point Humidity Pressure Visibility Wind Dir Wind Speed Gust Speed Precip Events Conditions
12:00 AM 62.6 °F 30.2 °F 30% 29.98 in - NNE 12.7 mph - N/A   Clear
12:30 AM 62 °F 31 °F 20% 29.99 in - North 10.4 mph - -  
12:30 AM 62.6 °F 30.2 °F 30% 29.98 in - North 10.4 mph - N/A   Clear
1:00 AM 64.4 °F 30.2 °F 28% 29.95 in - NNE 11.5 mph - N/A   Clear
1:30 AM 60.8 °F 32.0 °F 34% 29.95 in - North 10.4 mph - N/A   Clear
2:00 AM 60.8 °F 30.2 °F 31% 29.95 in - North 8.1 mph - N/A   Clear
2:30 AM 60.8 °F 30.2 °F 31% 29.95 in - North 13.8 mph - N/A   Clear
3:00 AM 60 °F 31 °F 22% 29.96 in 25 mi North 13.8 mph - -   Smoke
3:00 AM 60.8 °F 30.2 °F 31% 29.95 in - North 13.8 mph - N/A   Clear
3:30 AM 61 °F 29 °F 19% 29.95 in - North 13.8 mph - -  
3:30 AM 60.8 °F 30.2 °F 31% 29.95 in - North 13.8 mph - N/A   Clear
4:00 AM 60.8 °F 30.2 °F 31% 29.92 in - North 15.0 mph - N/A   Clear
4:30 AM 60.8 °F 30.2 °F 31% 29.95 in - NNE 12.7 mph - N/A   Clear
5:00 AM 60.8 °F 28.4 °F 29% 29.95 in - NNE 11.5 mph - N/A   Clear
5:30 AM 60.8 °F 30.2 °F 31% 29.95 in 6.2 mi NNE 11.5 mph - N/A   Partly Cloudy
6:00 AM 60 °F 30 °F 20% 29.96 in 22 mi NNE 12.7 mph - -   Smoke
6:00 AM 60.8 °F 30.2 °F 31% 29.95 in - NNE 12.7 mph - N/A   Clear
6:30 AM 62 °F 29 °F 18% 29.98 in - NNE 15.0 mph - -  
6:30 AM 62.6 °F 28.4 °F 27% 29.98 in - NNE 15.0 mph - N/A   Clear
7:00 AM 64.4 °F 28.4 °F 26% 29.98 in - NNE 15.0 mph - N/A   Clear
7:30 AM 66.2 °F 28.4 °F 24% 29.98 in - NNE 15.0 mph - N/A   Clear
8:00 AM 69.8 °F 28.4 °F 21% 29.98 in - North 15.0 mph - N/A   Clear
8:30 AM 73.4 °F 24.8 °F 16% 29.98 in - North 17.3 mph - N/A   Clear
9:00 AM 76 °F 24 °F 7% 30.00 in 19 mi North 16.1 mph - -   Smoke
9:00 AM 75.2 °F 24.8 °F 15% 29.98 in - North 16.1 mph - N/A   Clear
9:30 AM 69.8 °F 44.6 °F 40% 30.01 in - NNW 17.3 mph - N/A   Clear
10:00 AM 73.4 °F 41.0 °F 31% 30.01 in - NW 12.7 mph - N/A   Clear
10:30 AM 75.2 °F 39.2 °F 27% 30.01 in - NW 11.5 mph - N/A   Clear
11:00 AM 77.0 °F 33.8 °F 21% 29.98 in - NNW 17.3 mph - N/A   Clear
11:30 AM 77.0 °F 37.4 °F 24% 29.98 in - NW 17.3 mph - N/A   Clear
12:00 PM 73.4 °F 42.8 °F 33% 29.98 in - WNW 10.4 mph - N/A   Clear
12:30 PM 78 °F 35 °F 12% 29.96 in - WNW 8.1 mph - -  
12:30 PM 78.8 °F 35.6 °F 21% 29.95 in - WNW 8.1 mph - N/A   Clear
1:00 PM 78.8 °F 41.0 °F 26% 29.95 in - WSW 8.1 mph - N/A   Clear
1:30 PM 80.6 °F 32.0 °F 17% 29.95 in - WNW 9.2 mph - N/A   Clear
2:00 PM 80.6 °F 28.4 °F 15% 29.92 in - WNW 11.5 mph - N/A   Clear
2:30 PM 80.6 °F 28.4 °F 15% 29.92 in - West 10.4 mph - N/A   Clear
3:00 PM 80 °F 30 °F 8% 29.93 in 22 mi WSW 8.1 mph - -   Partly Cloudy
3:00 PM 80.6 °F 30.2 °F 16% 29.92 in - WSW 8.1 mph - N/A   Clear
3:30 PM 78 °F 29 °F 9% 29.92 in - WSW 11.5 mph - -  
3:30 PM 78.8 °F 30.2 °F 17% 29.92 in - WSW 11.5 mph - N/A   Clear
4:00 PM 73.4 °F 41.0 °F 31% 29.92 in - SW 10.4 mph - N/A   Clear
4:30 PM 71.6 °F 46.4 °F 41% 29.92 in - SSW 8.1 mph - N/A   Clear
5:00 PM 69.8 °F 48.2 °F 46% 29.92 in - SSW 11.5 mph - N/A   Clear
5:30 PM 68.0 °F 50.0 °F 52% 29.92 in - SSW 13.8 mph - N/A   Clear
6:00 PM 67 °F 50 °F 44% 29.95 in 22 mi SSW 10.4 mph - -   Partly Cloudy
6:00 PM 68.0 °F 50.0 °F 52% 29.95 in - SSW 10.4 mph - N/A   Clear
6:30 PM 65 °F 51 °F 52% 29.95 in - SW 8.1 mph - -  
6:30 PM 66.2 °F 51.8 °F 60% 29.95 in - SW 8.1 mph - N/A   Clear
7:00 PM 62.6 °F 57.2 °F 82% 29.95 in - WSW 11.5 mph - N/A   Clear
7:30 PM 60.8 °F 55.4 °F 82% 29.95 in - SW 8.1 mph - N/A   Clear
8:00 PM 60.8 °F 55.4 °F 82% 29.98 in - SW 5.8 mph - N/A   Clear
8:30 PM 60.8 °F 57.2 °F 88% 29.98 in - WSW 10.4 mph - N/A   Clear
9:00 PM 62 °F 51 °F 59% 30.01 in 19 mi South 9.2 mph - -   Partly Cloudy
9:00 PM 62.6 °F 51.8 °F 68% 30.01 in - South 9.2 mph - N/A   Clear
9:30 PM 60 °F 52 °F 67% 30.01 in - South 12.7 mph - -  
9:30 PM 60.8 °F 51.8 °F 72% 30.01 in - South 12.7 mph - N/A   Clear
10:00 PM 60.8 °F 51.8 °F 72% 30.01 in - South 11.5 mph - N/A   Clear
10:30 PM 59.0 °F 51.8 °F 77% 30.01 in - SSE 10.4 mph - N/A   Clear
11:00 PM 59.0 °F 51.8 °F 77% 30.01 in - South 9.2 mph - N/A   Clear
11:30 PM 57.2 °F 50.0 °F 77% 30.01 in - South 9.2 mph - N/A   Clear